Regional Weather Roundup
Issued by NWS

Home | Current Version | Previous Version | Graphics & Text | Print | Product List | Glossary On
Versions: 1 2 3 4 5 6 7 8 9 10 11 12 13 14 15 16 17 18 19 20 21 22 23 24 25 26 27 28 29 30 31 32 33 34 35 36 37 38 39 40 41 42 43 44 45 46 47 48 49 50
000
ASUS45 KCYS 191210
RWRWY

WYOMING REGIONAL WEATHER ROUNDUP
NATIONAL WEATHER SERVICE CHEYENNE WY
600 AM MDT SUN OCT 19 2014

NOTE:  "FAIR" INDICATES FEW OR NO CLOUDS BELOW 12,000 FEET
WITH NO SIGNIFICANT WEATHER AND/OR OBSTRUCTIONS TO VISIBILITY.

WYZ001-191300-
YELLOWSTONE NATIONAL PARK

CITY           SKY/WX    TMP DP  RH WIND       PRES   REMARKS
LK YELLOWSTONE   N/A     26  23  88 CALM      30.27S
6HR MIN TEMP:  26; 6HR MAX TEMP:  30;

W YELLOWSTONE  NOT AVBL

$$
WYZ002>013-054>058-071-098>099-191300-
NORTHERN WYOMING

CITY           SKY/WX    TMP DP  RH WIND       PRES   REMARKS
JACKSON        CLEAR     28  27  93 N3        30.23R
CODY           CLEAR    N/A N/A N/A S6        30.10R
GREYBULL       CLEAR     37  28  70 SE3       30.08R
6HR MIN TEMP:  37; 6HR MAX TEMP:  48;

WORLAND        CLEAR     35  29  78 CALM      30.08S
6HR MIN TEMP:  33; 6HR MAX TEMP:  45;

SHERIDAN       CLEAR     40  31  70 CALM      30.07S
6HR MIN TEMP:  37; 6HR MAX TEMP:  50;

BUFFALO        CLEAR     45  30  55 W5        30.12R
6HR MIN TEMP:  44; 6HR MAX TEMP:  53;

GILLETTE       CLEAR     35  31  85 SW5       30.08R WCI  31
6HR MIN TEMP:  35; 6HR MAX TEMP:  50;

HULETT         FAIR      41  34  75 S7        30.08
NEWCASTLE      FAIR      45  32  61 W3        30.06

$$
WYZ014>020-022>026-101>103-191300-
CENTRAL WYOMING

CITY           SKY/WX    TMP DP  RH WIND       PRES   REMARKS
BIG PINEY      PTCLDY    29  24  82 CALM      30.22R
6HR MIN TEMP:  26; 6HR MAX TEMP:  42;

PINEDALE       SUNNY     28  27  93 W7        30.22R WCI  21
DUBOIS         FAIR      34  27  75 W13       30.20R WCI  25
LANDER         CLEAR     45  30  55 SW3       30.12R
6HR MIN TEMP:  43; 6HR MAX TEMP:  51;

RIVERTON       CLEAR     38  30  73 N3        30.14R
6HR MIN TEMP:  38; 6HR MAX TEMP:  52;

CASPER         PTCLDY    37  29  72 W8        30.13R WCI  31
6HR MIN TEMP:  34; 6HR MAX TEMP:  42;

DOUGLAS        CLEAR     40  33  76 N10       30.12R WCI  33
6HR MIN TEMP:  36; 6HR MAX TEMP:  41;


$$
WYZ021-027>030-104>119-191300-
SOUTHERN WYOMING

CITY           SKY/WX    TMP DP  RH WIND       PRES   REMARKS
EVANSTON       PTCLDY    41  27  57 SE7       30.20R
6HR MIN TEMP:  40; 6HR MAX TEMP:  50;

KEMMERER       MOSUNNY   34  28  80 N9        30.22S WCI  26
FORT BRIDGER   FAIR      46  30  52 W5        30.22S
ROCK SPRINGS   PTCLDY    41  26  55 CALM      30.19R
6HR MIN TEMP:  40; 6HR MAX TEMP:  51;

DIXON            N/A     37  27  69 CALM      30.23R HAZE
RAWLINS        CLEAR     35  25  66 NE3       30.19R
6HR MIN TEMP:  32; 6HR MAX TEMP:  50;

SARATOGA       FAIR      34  27  75 S5        30.21R WCI  30
LARAMIE        CLEAR     33  26  75 SE8       30.19R WCI  26
6HR MIN TEMP:  32; 6HR MAX TEMP:  40;

CHEYENNE       CLEAR     50  27  40 NW8       30.12R
6HR MIN TEMP:  45; 6HR MAX TEMP:  50;

TORRINGTON     CLEAR     37  34  89 W6        30.05R WCI  32
6HR MIN TEMP:  36; 6HR MAX TEMP:  47;

PINE BLUFFS    FAIR      36  32  87 CALM      30.08S

$$


USA.gov is the U.S. government's official web portal to all federal, state and local government web resources and services.